WB4ZUT Weather Reports


time (UTC)temp
C
wind
direction
speed
KPH
gust
KPH
rain 1hr
cm
rain 24hr
cm
rain mn
cm
humidity
%
barometer
mb
20260905204711 39 341 3.2 9.7 0.00 0.00 0.00 42 1010.3
20260905204206 39 60 1.6 1.6 0.00 0.00 0.00 41 1010.5
20260905203700 39 37 3.2 3.2 0.00 0.00 0.00 42 1010.5
20260905203156 39 65 1.6 1.6 0.00 0.00 0.00 44 1010.5
20260905202651 38 1 3.2 3.2 0.00 0.00 0.00 43 1010.4
20260905202146 38 7 4.8 4.8 0.00 0.00 0.00 43 1010.6
20260905201642 38 56 3.2 8.0 0.00 0.00 0.00 45 1010.8
20260905201136 38 49 1.6 1.6 0.00 0.00 0.00 44 1010.9
20260905200632 38 294 8.0 9.7 0.00 0.00 0.00 44 1011.0
20260905200127 38 300 6.4 9.7 0.00 0.00 0.00 44 1010.9
20260905195625 39 251 8.0 11.3 0.00 0.00 0.00 44 1010.9
20260905195121 38 280 3.2 3.2 0.00 0.00 0.00 43 1011.0
20260905194621 39 343 4.8 4.8 0.00 0.00 0.00 43 1011.0
20260905194120 39 65 1.6 1.6 0.00 0.00 0.00 43 1011.0
20260905193615 38 82 0.0 0.0 0.00 0.00 0.00 46 1010.9
20260905193110 37 136 3.2 3.2 0.00 0.00 0.00 46 1011.1
20260905192606 38 8 4.8 4.8 0.00 0.00 0.00 45 1011.1
20260905192102 38 6 3.2 3.2 0.00 0.00 0.00 45 1011.5
20260905191600 38 64 1.6 1.6 0.00 0.00 0.00 45 1011.4
20260905191059 38 341 3.2 3.2 0.00 0.00 0.00 46 1011.7
20260905190557 38 260 4.8 8.0 0.00 0.00 0.00 45 1011.8
20260905190056 38 348 3.2 3.2 0.00 0.00 0.00 46 1011.6
20260905185556 38 19 4.8 8.0 0.00 0.00 0.00 48 1011.6
20260905185050 38 270 11.3 12.9 0.00 0.00 0.00 47 1011.9
20260905184545 38 110 3.2 3.2 0.00 0.00 0.00 46 1012.1
20260905184044 38 353 6.4 9.7 0.00 0.00 0.00 47 1012.1
20260905183538 38 325 3.2 3.2 0.00 0.00 0.00 47 1012.1
20260905183033 38 251 4.8 4.8 0.00 0.00 0.00 48 1012.2
20260905182533 38 96 3.2 3.2 0.00 0.00 0.00 49 1012.2
20260905182027 38 291 3.2 8.0 0.00 0.00 0.00 48 1012.0
20260905181522 37 340 4.8 4.8 0.00 0.00 0.00 50 1012.1
20260905181021 37 18 1.6 3.2 0.00 0.00 0.00 54 1012.2
20260905180516 36 259 4.8 4.8 0.00 0.00 0.00 53 1012.3
20260905180012 37 316 4.8 8.0 0.00 0.00 0.00 53 1012.7
20260905175510 37 8 4.8 8.0 0.00 0.00 0.00 52 1012.4
20260905175007 37 163 4.8 4.8 0.00 0.00 0.00 53 1012.7
20260905174502 37 149 3.2 4.8 0.00 0.00 0.00 52 1012.5
20260905173957 37 308 6.4 8.0 0.00 0.00 0.00 52 1012.6
20260905173453 37 181 4.8 8.0 0.00 0.00 0.00 53 1012.8
20260905172949 37 111 4.8 4.8 0.00 0.00 0.00 52 1012.7
20260905172447 37 301 8.0 9.7 0.00 0.00 0.00 52 1012.9
20260905171942 36 14 1.6 1.6 0.00 0.00 0.00 55 1012.9
20260905171439 37 316 4.8 4.8 0.00 0.00 0.00 52 1013.1
20260905170935 37 282 3.2 8.0 0.00 0.00 0.00 52 1013.0
20260905170431 37 110 0.0 1.6 0.00 0.00 0.00 55 1013.0
20260905165930 37 339 6.4 8.0 0.00 0.00 0.00 53 1012.9
20260905165425 37 63 1.6 1.6 0.00 0.00 0.00 55 1013.0
20260905164921 37 9 3.2 3.2 0.00 0.00 0.00 54 1013.1
20260905164420 36 46 3.2 4.8 0.00 0.00 0.00 56 1013.4
20260905163915 36 339 4.8 4.8 0.00 0.00 0.00 55 1013.3
20260905163412 37 341 4.8 4.8 0.00 0.00 0.00 55 1013.6
20260905162908 36 133 3.2 3.2 0.00 0.00 0.00 56 1013.5
20260905162402 36 309 6.4 8.0 0.00 0.00 0.00 58 1013.8
20260905161857 36 216 4.8 4.8 0.00 0.00 0.00 57 1013.9
20260905161356 36 18 1.6 1.6 0.00 0.00 0.00 60 1013.8
20260905160854 35 72 0.0 0.0 0.00 0.00 0.00 61 1013.8
20260905160349 35 322 3.2 3.2 0.00 0.00 0.00 61 1013.8
20260905155843 35 67 3.2 3.2 0.00 0.00 0.00 61 1014.0
20260905155342 35 287 6.4 8.0 0.00 0.00 0.00 60 1013.9
20260905154837 35 343 3.2 3.2 0.00 0.00 0.00 62 1013.9
20260905154332 35 67 0.0 0.0 0.00 0.00 0.00 64 1014.0
20260905153827 34 66 4.8 4.8 0.00 0.00 0.00 65 1013.8
20260905153324 34 48 3.2 3.2 0.00 0.00 0.00 66 1013.6
20260905152824 34 62 0.0 1.6 0.00 0.00 0.00 64 1014.1
20260905152323 33 97 1.6 3.2 0.00 0.00 0.00 66 1013.9
20260905151818 33 74 1.6 1.6 0.00 0.00 0.00 66 1013.7
20260905151313 34 105 1.6 3.2 0.00 0.00 0.00 64 1013.9
20260905150808 34 81 0.0 0.0 0.00 0.00 0.00 63 1013.7
20260905150308 33 69 0.0 0.0 0.00 0.00 0.00 67 1014.0
20260905145805 33 102 3.2 4.8 0.00 0.00 0.00 65 1013.8
20260905145259 33 63 0.0 1.6 0.00 0.00 0.00 66 1013.7
20260905144758 33 115 1.6 3.2 0.00 0.00 0.00 65 1014.1
20260905144254 33 67 1.6 1.6 0.00 0.00 0.00 66 1013.8
20260905143752 33 85 1.6 1.6 0.00 0.00 0.00 67 1013.7
20260905143247 33 54 1.6 1.6 0.00 0.00 0.00 67 1014.0
20260905142745 33 81 0.0 1.6 0.00 0.00 0.00 66 1013.9
20260905142240 32 77 0.0 1.6 0.00 0.00 0.00 67 1013.9
20260905141736 33 63 0.0 0.0 0.00 0.00 0.00 66 1013.8
20260905141232 32 43 3.2 3.2 0.00 0.00 0.00 69 1014.1
20260905140727 31 87 0.0 0.0 0.00 0.00 0.00 72 1014.1
20260905140221 31 93 1.6 1.6 0.00 0.00 0.00 74 1014.1
20260905135721 31 90 0.0 1.6 0.00 0.00 0.00 72 1013.9
20260905135217 31 89 1.6 1.6 0.00 0.00 0.00 73 1014.0
20260905134716 31 82 0.0 1.6 0.00 0.00 0.00 73 1013.9
20260905134215 31 75 1.6 1.6 0.00 0.00 0.00 73 1013.9
20260905133711 30 66 0.0 0.0 0.00 0.00 0.00 76 1014.3
20260905133206 30 94 1.6 1.6 0.00 0.00 0.00 76 1014.4
20260905132704 30 90 1.6 1.6 0.00 0.00 0.00 77 1014.1
20260905132200 29 77 0.0 1.6 0.00 0.00 0.00 79 1014.2
20260905131655 28 96 1.6 3.2 0.00 0.00 0.00 81 1014.1
20260905131150 28 92 1.6 3.2 0.00 0.00 0.00 82 1014.2
20260905130645 27 108 4.8 4.8 0.00 0.00 0.00 83 1014.2
20260905130144 27 109 1.6 1.6 0.00 0.00 0.00 87 1014.2
20260905125638 27 76 0.0 0.0 0.00 0.00 0.00 88 1014.3
20260905125134 26 72 0.0 0.0 0.00 0.00 0.00 89 1014.3
20260905124631 26 81 0.0 1.6 0.00 0.00 0.00 89 1014.3
20260905124127 26 79 0.0 0.0 0.00 0.00 0.00 91 1014.1
20260905123622 26 73 0.0 0.0 0.00 0.00 0.00 92 1014.0
20260905123119 25 71 0.0 0.0 0.00 0.00 0.00 93 1014.2
20260905122618 25 82 0.0 0.0 0.00 0.00 0.00 94 1014.0
20260905122113 25 79 0.0 0.0 0.00 0.00 0.00 95 1014.0
20260905121608 25 79 0.0 0.0 0.00 0.00 0.00 95 1013.9
20260905121103 25 80 0.0 0.0 0.00 0.00 0.00 96 1014.0
20260905120602 25 76 0.0 0.0 0.00 0.00 0.00 96 1013.7
20260905120057 25 75 0.0 0.0 0.00 0.00 0.00 96 1013.8
20260905115556 24 66 0.0 0.0 0.00 0.00 0.00 97 1013.8
20260905115051 24 66 0.0 0.0 0.00 0.00 0.00 97 1013.9
20260905114550 24 66 0.0 0.0 0.00 0.00 0.00 97 1013.6
20260905114050 24 66 0.0 0.0 0.00 0.00 0.00 97 1013.6
20260905113544 24 66 0.0 0.0 0.00 0.00 0.00 96 1013.6
20260905113040 25 66 0.0 0.0 0.00 0.00 0.00 96 1013.6
20260905112535 25 66 0.0 0.0 0.00 0.00 0.00 96 1013.3
20260905112030 25 65 0.0 0.0 0.00 0.00 0.00 96 1013.4
20260905111525 25 65 0.0 0.0 0.00 0.00 0.00 96 1013.5
20260905111024 25 64 0.0 0.0 0.00 0.00 0.00 96 1013.4
20260905110524 25 57 0.0 0.0 0.00 0.00 0.00 96 1013.4
20260905110019 25 51 1.6 1.6 0.00 0.00 0.00 95 1013.4
20260905105513 25 84 0.0 0.0 0.00 0.00 0.00 95 1013.5
20260905105013 25 84 0.0 0.0 0.00 0.00 0.00 95 1013.4
20260905104509 25 84 0.0 0.0 0.00 0.00 0.00 95 1013.2
20260905104008 25 85 0.0 0.0 0.00 0.00 0.00 94 1013.2
20260905103504 25 84 0.0 0.0 0.00 0.00 0.00 94 1013.1
20260905103000 25 83 0.0 0.0 0.00 0.00 0.00 94 1013.1
20260905102455 25 84 0.0 0.0 0.00 0.00 0.00 93 1013.2
20260905101951 25 84 0.0 0.0 0.00 0.00 0.00 94 1013.2
20260905101449 25 83 0.0 0.0 0.00 0.00 0.00 94 1013.2
20260905100949 25 83 0.0 0.0 0.00 0.00 0.00 94 1013.3
20260905100444 25 83 0.0 0.0 0.00 0.00 0.00 94 1013.0
20260905095943 25 83 0.0 0.0 0.00 0.00 0.00 94 1013.1
20260905095438 25 83 0.0 0.0 0.00 0.00 0.00 93 1013.1
20260905094933 25 83 0.0 0.0 0.00 0.00 0.00 92 1013.0
20260905094429 25 83 0.0 0.0 0.00 0.00 0.00 92 1012.9
20260905093927 25 83 0.0 0.0 0.00 0.00 0.00 91 1013.1
20260905093423 25 83 0.0 0.0 0.00 0.00 0.00 91 1012.9
20260905092919 26 83 0.0 0.0 0.00 0.00 0.00 90 1012.9
20260905092414 26 83 0.0 0.0 0.00 0.00 0.00 90 1012.7
20260905091909 26 83 0.0 0.0 0.00 0.00 0.00 89 1012.6
20260905091409 26 81 0.0 0.0 0.00 0.00 0.00 90 1012.8
20260905090907 25 77 0.0 0.0 0.00 0.00 0.00 90 1012.7
20260905090358 25 61 0.0 0.0 0.00 0.00 0.00 92 1012.7
20260905085856 25 61 0.0 0.0 0.00 0.00 0.00 92 1012.6
20260905085351 25 61 0.0 0.0 0.00 0.00 0.00 92 1012.7
20260905084847 25 61 0.0 0.0 0.00 0.00 0.00 93 1012.8
20260905084346 26 64 0.0 0.0 0.00 0.00 0.00 93 1012.8
20260905083841 25 68 0.0 0.0 0.00 0.00 0.00 93 1012.5
20260905083337 25 76 0.0 0.0 0.00 0.00 0.00 93 1012.7
20260905082832 25 76 0.0 0.0 0.00 0.00 0.00 92 1012.7
20260905082328 26 76 0.0 0.0 0.00 0.00 0.00 93 1012.8
20260905081823 26 77 0.0 0.0 0.00 0.00 0.00 93 1013.1
20260905081318 26 77 0.0 0.0 0.00 0.00 0.00 93 1013.1
20260905080817 26 77 0.0 0.0 0.00 0.00 0.00 93 1013.0
20260905080312 26 77 0.0 0.0 0.00 0.00 0.00 92 1013.0
20260905075811 26 77 0.0 0.0 0.00 0.00 0.00 92 1012.9
20260905075311 26 75 0.0 0.0 0.00 0.00 0.00 92 1012.9
20260905074809 26 108 1.6 1.6 0.00 0.00 0.00 90 1012.8
20260905074306 26 81 0.0 0.0 0.00 0.00 0.00 90 1012.9
20260905073801 26 63 0.0 0.0 0.00 0.00 0.00 90 1013.0
20260905073256 26 63 0.0 0.0 0.00 0.00 0.00 91 1013.0
20260905072756 26 63 0.0 0.0 0.00 0.00 0.00 91 1013.0
20260905072251 26 62 0.0 0.0 0.00 0.00 0.00 92 1013.1
20260905071748 26 62 0.0 0.0 0.00 0.00 0.00 93 1013.2
20260905071243 26 62 0.0 0.0 0.00 0.00 0.00 93 1013.2
20260905070738 26 62 0.0 0.0 0.00 0.00 0.00 93 1013.2
20260905070235 26 62 0.0 0.0 0.00 0.00 0.00 92 1013.3
20260905065734 26 62 0.0 0.0 0.00 0.00 0.00 92 1013.2
20260905065233 26 62 0.0 0.0 0.00 0.00 0.00 91 1013.1
20260905064728 26 62 0.0 0.0 0.00 0.00 0.00 91 1013.3
20260905064224 26 62 0.0 0.0 0.00 0.00 0.00 91 1013.3
20260905063722 26 62 0.0 0.0 0.00 0.00 0.00 91 1013.2
20260905063218 26 62 0.0 0.0 0.00 0.00 0.00 91 1013.3
20260905062714 26 62 0.0 0.0 0.00 0.00 0.00 91 1013.2
20260905062213 26 62 0.0 0.0 0.00 0.00 0.00 90 1013.2
20260905061708 26 62 0.0 0.0 0.00 0.00 0.00 90 1013.3
20260905061202 26 60 0.0 0.0 0.00 0.00 0.00 90 1013.4
20260905060657 26 77 0.0 0.0 0.00 0.00 0.00 90 1013.5
20260905060154 26 78 0.0 0.0 0.00 0.00 0.00 89 1013.5
20260905055652 26 78 0.0 0.0 0.00 0.00 0.00 90 1013.4
20260905055148 26 69 0.0 0.0 0.00 0.00 0.00 90 1013.4
20260905054644 26 69 0.0 0.0 0.00 0.00 0.00 90 1013.3
20260905054139 27 19 1.6 3.2 0.00 0.00 0.00 89 1013.3
20260905053638 27 63 0.0 0.0 0.00 0.00 0.00 89 1013.4
20260905053134 27 73 0.0 0.0 0.00 0.00 0.00 88 1013.4
20260905052633 27 74 0.0 0.0 0.00 0.00 0.00 88 1013.5
20260905052128 27 74 0.0 0.0 0.00 0.00 0.00 88 1013.7
20260905051623 27 74 0.0 0.0 0.00 0.00 0.00 87 1013.6
20260905051120 27 74 0.0 0.0 0.00 0.00 0.00 87 1013.5
20260905050616 27 74 0.0 0.0 0.00 0.00 0.00 87 1013.5
20260905050113 27 87 3.2 3.2 0.00 0.00 0.00 87 1013.4
20260905045612 27 78 0.0 0.0 0.00 0.00 0.00 88 1013.4
20260905045108 27 78 0.0 0.0 0.00 0.00 0.00 89 1013.4
20260905044608 27 78 0.0 0.0 0.00 0.00 0.00 88 1013.4
20260905044103 27 78 0.0 0.0 0.00 0.00 0.00 87 1013.4
20260905043601 27 71 0.0 0.0 0.00 0.00 0.00 87 1013.5
20260905043057 27 71 0.0 0.0 0.00 0.00 0.00 85 1013.4
20260905042555 27 71 0.0 0.0 0.00 0.00 0.00 84 1013.5
20260905042051 27 71 0.0 0.0 0.00 0.00 0.00 84 1013.5
20260905041546 27 71 0.0 0.0 0.00 0.00 0.00 84 1013.5
20260905041042 27 71 0.0 0.0 0.00 0.00 0.00 83 1013.5
20260905040541 28 71 0.0 0.0 0.00 0.00 0.00 83 1013.6
20260905040040 28 71 0.0 0.0 0.00 0.00 0.00 82 1013.4
20260905035535 28 71 0.0 0.0 0.00 0.00 0.00 82 1013.7
20260905035032 28 71 0.0 0.0 0.00 0.00 0.00 82 1013.5
20260905034527 28 71 0.0 0.0 0.00 0.00 0.00 82 1013.5
20260905034027 28 71 0.0 0.0 0.00 0.00 0.00 82 1013.7
20260905033521 28 71 0.0 0.0 0.00 0.00 0.00 81 1013.7
20260905033017 28 71 0.0 0.0 0.00 0.00 0.00 80 1013.5
20260905032512 28 62 0.0 0.0 0.00 0.00 0.00 80 1013.6
20260905032007 28 65 0.0 0.0 0.00 0.00 0.00 80 1013.9
20260905031503 29 65 0.0 0.0 0.00 0.00 0.00 80 1013.7
20260905030957 28 61 0.0 0.0 0.00 0.00 0.00 80 1013.7
20260905030453 29 62 0.0 0.0 0.00 0.00 0.00 79 1013.8
20260905025951 29 62 0.0 0.0 0.00 0.00 0.00 79 1013.5
20260905025447 29 60 0.0 0.0 0.00 0.00 0.00 78 1013.5
20260905024943 30 79 0.0 0.0 0.00 0.00 0.00 76 1013.7
20260905024438 30 79 0.0 0.0 0.00 0.00 0.00 76 1013.7
20260905023933 29 78 0.0 0.0 0.00 0.00 0.00 76 1013.6
20260905023428 30 101 1.6 1.6 0.00 0.00 0.00 76 1013.8
20260905022927 30 36 1.6 1.6 0.00 0.00 0.00 77 1013.6
20260905022423 30 86 0.0 1.6 0.00 0.00 0.00 78 1013.5
20260905021918 30 86 0.0 0.0 0.00 0.00 0.00 75 1013.6
20260905021417 30 86 0.0 0.0 0.00 0.00 0.00 74 1013.5
20260905020912 30 86 0.0 0.0 0.00 0.00 0.00 72 1013.7
20260905020407 30 86 0.0 0.0 0.00 0.00 0.00 71 1013.4
20260905015907 30 86 0.0 0.0 0.00 0.00 0.00 70 1013.2
20260905015405 31 86 0.0 0.0 0.00 0.00 0.00 69 1013.3
20260905014904 31 87 0.0 0.0 0.00 0.00 0.00 70 1013.1
20260905014400 31 87 0.0 0.0 0.00 0.00 0.00 69 1013.3
20260905013855 31 88 1.6 1.6 0.00 0.00 0.00 69 1013.1
20260905013351 31 67 1.6 1.6 0.00 0.00 0.00 71 1013.2
20260905012846 31 85 0.0 1.6 0.00 0.00 0.00 73 1013.1
20260905012342 31 84 0.0 0.0 0.00 0.00 0.00 72 1012.9
20260905011839 31 84 0.0 0.0 0.00 0.00 0.00 73 1012.8
20260905011334 31 84 0.0 0.0 0.00 0.00 0.00 72 1012.8
20260905010829 31 84 0.0 0.0 0.00 0.00 0.00 71 1012.9
20260905010324 31 84 0.0 0.0 0.00 0.00 0.00 71 1012.9
20260905005820 31 84 0.0 0.0 0.00 0.00 0.00 71 1012.7
20260905005316 32 84 0.0 0.0 0.00 0.00 0.00 71 1012.6
20260905004810 32 84 0.0 0.0 0.00 0.00 0.00 69 1012.8
20260905004305 32 84 0.0 0.0 0.00 0.00 0.00 68 1012.7
20260905003800 32 84 0.0 0.0 0.00 0.00 0.00 68 1012.6
20260905003256 32 83 0.0 0.0 0.00 0.00 0.00 67 1012.7
20260905002752 33 83 0.0 0.0 0.00 0.00 0.00 64 1012.5
20260905002251 33 83 0.0 0.0 0.00 0.00 0.00 62 1012.7
20260905001746 33 83 0.0 0.0 0.00 0.00 0.00 61 1012.7
20260905001246 33 83 0.0 0.0 0.00 0.00 0.00 60 1012.8
20260905000742 34 83 0.0 0.0 0.00 0.00 0.00 59 1012.5
20260905000237 35 83 0.0 0.0 0.00 0.00 0.00 57 1012.6
20260904235732 35 83 0.0 0.0 0.00 0.00 0.00 57 1012.8
20260904235226 35 83 0.0 0.0 0.00 0.00 0.00 55 1012.6
20260904234721 36 83 0.0 0.0 0.00 0.00 0.00 54 1012.6
20260904234217 36 83 0.0 0.0 0.00 0.00 0.00 53 1012.7
20260904233712 36 73 0.0 0.0 0.00 0.00 0.00 52 1012.6
20260904233208 37 70 0.0 1.6 0.00 0.00 0.00 51 1012.7
20260904232705 37 84 0.0 0.0 0.00 0.00 0.00 51 1012.5
20260904232201 37 70 0.0 1.6 0.00 0.00 0.00 49 1012.7
20260904231656 37 67 0.0 1.6 0.00 0.00 0.00 49 1012.4
20260904231151 37 69 1.6 1.6 0.00 0.00 0.00 48 1012.6
20260904230650 37 40 1.6 1.6 0.00 0.00 0.00 49 1012.3
20260904230146 37 59 1.6 1.6 0.00 0.00 0.00 50 1012.4
20260904225644 37 272 4.8 4.8 0.00 0.00 0.00 48 1012.7
20260904225139 37 68 0.0 0.0 0.00 0.00 0.00 47 1012.4
20260904224633 38 59 0.0 0.0 0.00 0.00 0.00 48 1012.1
20260904224127 38 65 0.0 0.0 0.00 0.00 0.00 48 1012.4
20260904223627 37 32 1.6 1.6 0.00 0.00 0.00 48 1012.1
20260904223122 37 30 1.6 1.6 0.00 0.00 0.00 50 1012.4
20260904222619 37 27 1.6 1.6 0.00 0.00 0.00 48 1012.3
20260904222114 38 71 0.0 1.6 0.00 0.00 0.00 49 1012.1
20260904221614 38 31 1.6 1.6 0.00 0.00 0.00 50 1012.2
20260904221113 38 79 0.0 0.0 0.00 0.00 0.00 48 1012.4
20260904220608 38 21 1.6 1.6 0.00 0.00 0.00 47 1012.2
20260904220104 38 43 3.2 3.2 0.00 0.00 0.00 47 1012.4
20260904215604 38 12 3.2 3.2 0.00 0.00 0.00 48 1012.4
20260904215100 38 83 3.2 4.8 0.00 0.00 0.00 48 1012.5
20260904214554 38 46 3.2 3.2 0.00 0.00 0.00 48 1012.5
20260904214051 38 71 3.2 3.2 0.00 0.00 0.00 49 1012.4
20260904213548 38 164 4.8 4.8 0.00 0.00 0.00 47 1012.9
20260904213046 38 132 6.4 9.7 0.00 0.00 0.00 47 1013.0
20260904212544 39 304 4.8 8.0 0.00 0.00 0.00 46 1012.8
20260904212040 38 79 0.0 1.6 0.00 0.00 0.00 46 1012.9
20260904211540 38 65 1.6 3.2 0.00 0.00 0.00 47 1012.9
20260904211035 38 239 3.2 3.2 0.00 0.00 0.00 46 1013.0
20260904210534 38 59 1.6 3.2 0.00 0.00 0.00 48 1013.3
20260904210031 38 258 4.8 4.8 0.00 0.00 0.00 46 1013.3
20260904205526 38 358 4.8 8.0 0.00 0.00 0.00 48 1013.3